Regional Weather Roundup
Issued by NWS

Home | Current Version | Previous Version | Graphics & Text | Print | Product List | Glossary On
Versions: 1 2 3 4 5 6 7 8 9 10 11 12 13 14 15 16 17 18 19 20 21 22 23 24 25 26 27 28
000
ASUS45 KTFX 171110
RWRMT
MONTANA REGIONAL WEATHER ROUNDUP
NATIONAL WEATHER SERVICE GREAT FALLS MT
500 AM MDT TUE OCT 17 2017

NOTE: "FAIR" INDICATES FEW OR NO CLOUDS BELOW 12000 FEET WITH NO
SIGNIFICANT WEATHER AND/OR OBSTRUCTIONS TO VISIBILITY.

MTZ001>007-043-171200-
WEST OF THE DIVIDE

CITY           SKY/WX    TMP DP  RH WIND       PRES   REMARKS
KALISPELL      CLEAR     32  29  88 SW7       30.00F WCI  26
MISSOULA       CLEAR     30  26  85 CALM      30.12S
BUTTE          CLEAR     30  23  75 CALM      30.19F
MULLAN PASS    CLEAR     42  23  46 SW6       30.10F
ANACONDA         N/A     46  19  34 S8        30.14F
DEER LODGE       N/A     39  25  56 W7        30.15F
HAMILTON         N/A     45  25  45 S15       30.12F
LIBBY            N/A     34  30  86 CALM      30.00F
PLAINS           N/A     28  22  78 CALM      30.06F
$$

MTZ008-052>055-171200-
SOUTHWEST MONTANA

CITY           SKY/WX    TMP DP  RH WIND       PRES   REMARKS
BOZEMAN        CLOUDY    33  25  72 SE8       30.16F WCI  26
DILLON         CLOUDY    37  21  52 S13       30.20F WCI  29
W YELLOWSTONE  CLOUDY    19  16  86 CALM      30.34S
ENNIS          CLOUDY    37  19  48 S17       30.26F WCI  28
$$

MTZ009-010-012-014-046-048-049-054-171200-
EAST SLOPES AND CENTRAL MONTANA

CITY           SKY/WX    TMP DP  RH WIND       PRES   REMARKS
CUT BANK       PTCLDY    56  20  24 W37G46    29.84F
GREAT FALLS    CLOUDY    56  21  25 SW22G31   29.96S
MALMSTROM AFB  CLOUDY    54  22  28 SW15      29.96F
HELENA         CLOUDY    40  28  62 NW5       30.08F
CHOTEAU          N/A     57  19  23 SW10G17   29.95F
$$

MTZ011-013-016-021-045-047-050-051-171200-
NORTH CENTRAL MONTANA

CITY           SKY/WX    TMP DP  RH WIND       PRES   REMARKS
HAVRE          CLOUDY    56  26  31 SW20G29   29.86F
LEWISTOWN      CLEAR     55  20  25 SW16      30.01S
N BAR RANCH      N/A     59  10  14 W13G21    29.98F
CHINOOK          N/A     63  25  23 SW24G36   29.81S
$$

MTZ017>020-022>027-061-062-171200-
NORTHEAST MONTANA

CITY           SKY/WX    TMP DP  RH WIND       PRES   REMARKS
GLASGOW        CLOUDY    50  27  40 SW7       29.85S
JORDAN           N/A     49  26  41 W6        29.90F
SIDNEY         CLOUDY    39  31  72 SW10      29.89F
WOLF POINT     CLOUDY    36  29  75 CALM      29.87S
MALTA          CLEAR     59  27  29 W21G29    29.81F
PLENTYWOOD       N/A     46  28  49 CALM      29.82S
POPLAR           N/A     45  28  53 CALM      29.87S
SCOBEY           N/A     49  22  34 SW7       29.82
$$

MTZ028>42-056>058-171200-
SOUTHCENTRAL AND SOUTHEAST MONTANA

CITY           SKY/WX    TMP DP  RH WIND       PRES   REMARKS
BAKER          CLEAR     46  27  47 SW9       29.98F
BILLINGS       CLEAR     50  22  33 W14       30.05S
LIVINGSTON     CLOUDY    53  19  26 SW30G45   30.13S
MILES CITY     CLEAR     39  29  67 S9        29.97F
BIG TIMBER     CLEAR     52  18  25 W28G35    30.09F
EKALAKA          N/A     56  19  23 SW6       29.99
FORSYTH          N/A     52  23  32 SW5       29.97S
LAUREL           N/A     48  21  34 SW13      30.06F
$$

REGIONAL REPORTS...DAKOTAS

CITY           SKY/WX    TMP DP  RH WIND       PRES   REMARKS
WILLISTON      CLOUDY    44  32  62 SW12      29.86F
MINOT          CLEAR     51  33  50 SW17      29.82F
DICKINSON      CLEAR     47  28  47 SW8       29.91F
BEACH            N/A     46  25  42 SW15      29.96F
CROSBY           N/A     43  30  61 SW16      29.80F
TIOGA            N/A     45  30  57 SW14      29.85S
WATFORD CITY     N/A     39  30  70 SW7       29.87F
BISMARCK       CLOUDY    34  30  85 E6        29.94F WCI  29
GRAND FORKS    CLOUDY    35  31  85 S7        29.89S WCI  29
FARGO          CLOUDY    39  35  86 S8        29.94R
BUFFALO SD       N/A     46  25  43 W12       29.94F
RAPID CITY     CLEAR     45  24  43 W8        30.06F
$$

REGIONAL REPORTS...WYOMING/IDAHO/WASHINGTON

CITY           SKY/WX    TMP DP  RH WIND       PRES   REMARKS
GILLETTE       CLOUDY    49  21  33 SW6       30.10S
SHERIDAN       CLOUDY    38  25  59 CALM      30.08S
BUFFALO WY     CLOUDY    49  13  23 W8        30.12F
CODY           CLOUDY    55  16  21 W9G18     30.18S
YELLOWSTONE LA   N/A     22  32 100 NW3       30.37F
IDAHO FALLS    CLOUDY    27  24  89 N6        30.31F WCI  20
SALMON         CLOUDY    27  24  89 CALM      30.27F
BOISE          CLEAR     42  30  62 CALM      30.20F
SPOKANE        CLEAR     44  33  65 S8        30.00F
$$

REGIONAL REPORTS...ALBERTA

CITY           SKY/WX    TMP DP  RH WIND       PRES   REMARKS
EDMONTON       CLEAR     43  34  70 S3        29.49F
CALGARY        PTCLDY    45  32  61 S6        29.60F
LETHBRIDGE     CLEAR     55  30  38 SW24G33   29.76F
MEDICINE HAT   CLEAR     55  32  41 SW17      29.68F
$$

REGIONAL REPORTS...SASKATCHEWAN

CITY           SKY/WX    TMP DP  RH WIND       PRES   REMARKS
SWIFT CURRENT  CLEAR     46  27  46 SW18      29.71S
REGINA         CLEAR     39  27  60 SW8       29.69F
SASKATOON      CLEAR     37  32  81 SW8       29.60S WCI  31
$$




USA.gov is the U.S. government's official web portal to all federal, state and local government web resources and services.